Wetbulb
54.43 51.76 51.52 50.65 43.40 43.56 38.90 42.52 48.03 47.14 47.82 51.53 53.26 51.58 49.99 51.61 50.27 47.04 62.13 63.48 66.26 66.75 70.80 71.85 72.16 72.71 72.80 72.93 73.03 72.66 72.44 72.06 71.11 70.73 70.46 70.25 70.29 70.11 70.10 70.69 70.79 70.50 69.25 69.09 68.41 67.20 67.98 69.17 69.50
52.39 51.40 51.32 47.67 38.34 33.92 37.27 44.48 43.82 47.28 50.64 52.96 52.62 52.73 49.95 49.19 55.05 58.29 58.28 62.73 65.80 66.83 70.25 71.50 70.82 72.23 72.27 72.49 72.78 72.55 72.44 72.08 71.69 71.08 70.59 70.58 70.60 70.70 70.09 70.05 70.64 70.71 70.00 68.87 67.77 68.01 69.85 69.35 69.47
53.01 50.93 46.86 42.62 38.81 34.47 36.36 43.08 44.57 46.92 49.83 50.74 49.55 53.25 50.67 51.57 54.31 54.23 56.39 62.54 65.78 66.26 68.19 71.07 70.22 71.95 72.09 72.14 72.59 72.23 72.17 72.02 71.80 71.38 70.41 70.23 70.23 70.75 70.50 70.52 70.42 70.47 70.54 68.59 68.26 70.17 69.73 69.37 69.17
47.40 47.67 46.86 39.22 36.61 40.72 41.45 43.73 43.33 45.62 48.59 50.05 50.33 47.90 52.21 54.12 53.83 53.60 56.46 60.45 65.10 66.69 68.60 69.18 70.36 71.77 71.86 71.72 72.26 72.15 72.11 72.24 71.96 71.44 71.03 70.61 70.79 70.77 70.37 70.27 70.40 70.49 70.34 70.15 69.97 69.64 68.85 68.93 68.97
46.61 44.24 37.96 36.54 36.95 40.38 42.50 43.67 43.58 43.53 45.90 47.51 48.76 46.84 49.30 52.99 53.25 52.99 53.61 58.48 63.56 64.45 67.49 69.01 69.75 70.84 71.40 71.47 71.43 71.80 71.83 71.82 72.01 71.63 71.33 70.86 70.66 70.15 69.87 69.89 69.95 70.04 69.88 70.25 69.82 69.10 68.17 68.11 68.38
39.47 42.07 33.67 32.27 36.18 39.98 41.60 42.54 42.37 42.93 44.27 45.50 45.32 46.11 47.32 52.09 50.46 51.30 52.87 53.21 58.28 58.94 60.90 68.14 67.09 68.55 69.82 70.38 70.59 70.76 71.17 71.52 71.28 71.38 71.13 70.70 70.43 69.85 69.40 69.62 69.56 69.39 69.43 69.75 69.33 68.54 68.20 68.40 68.41
37.63 35.61 32.07 33.50 34.48 36.47 39.38 43.00 40.64 41.00 41.50 42.03 44.49 40.62 45.83 48.25 49.34 49.85 51.42 52.45 54.64 55.03 55.32 58.61 62.20 67.79 65.19 67.86 68.38 69.19 70.20 70.38 70.41 70.50 70.46 69.64 69.23 68.80 68.43 68.49 68.82 69.15 69.21 69.03 68.56 68.32 68.44 68.44 68.47
39.57 36.52 32.23 33.19 32.60 34.10 39.84 40.37 42.34 40.06 39.39 44.23 44.23 38.73 38.39 45.76 48.16 47.55 49.85 50.46 51.59 53.71 55.20 55.88 56.97 57.28 67.85 68.38 65.64 66.20 67.65 68.33 68.56 68.52 67.41 66.70 66.39 66.49 66.24 64.96 66.73 68.54 68.47 66.87 67.36 67.53 68.27 68.28 68.21
42.63 31.54 29.50 32.25 33.39 35.08 39.02 37.27 40.15 40.59 39.40 39.48 41.97 41.13 42.78 45.38 46.46 44.84 45.73 46.55 48.23 52.35 53.38 55.04 55.21 55.86 59.19 64.05 66.91 64.34 65.18 65.74 66.13 65.80 64.21 63.66 65.93 65.49 63.99 62.82 64.73 67.16 66.99 67.06 67.06 66.96 67.35 66.57 65.84
36.70 30.80 32.12 36.72 36.64 34.81 36.97 36.56 36.82 36.58 37.02 37.84 38.81 42.18 43.48 44.13 43.65 42.49 42.51 42.32 43.70 45.89 50.82 52.52 53.91 55.40 56.40 59.78 62.12 67.07 67.44 67.41 67.58 67.38 65.65 65.88 65.21 64.74 64.04 61.64 62.29 64.47 64.75 66.10 66.68 66.63 65.50 63.30 64.09
37.02 31.31 36.45 36.94 37.95 38.03 36.29 35.91 37.91 35.76 34.13 36.79 36.33 38.56 41.02 41.19 41.27 41.56 41.71 42.82 43.27 45.37 47.94 52.30 52.78 54.95 55.81 56.91 57.95 63.54 67.32 67.09 67.13 66.97 65.95 65.47 64.92 63.44 63.37 62.76 61.84 62.64 61.06 64.15 64.59 64.10 63.91 62.75 61.79
32.84 36.24 36.82 37.46 38.14 36.91 34.81 36.98 35.17 35.67 35.92 39.69 39.39 40.11 40.40 40.06 40.48 40.66 40.66 42.04 43.09 44.20 45.59 49.76 52.91 52.64 54.93 56.64 54.46 56.36 66.22 66.64 66.51 66.60 66.29 65.07 63.93 63.14 62.55 62.08 61.54 62.00 62.83 62.82 62.74 62.63 62.42 61.73 61.94
33.19 35.02 37.27 37.72 36.99 36.25 37.27 34.54 34.24 34.81 38.05 39.97 40.50 41.07 40.21 40.26 40.70 41.53 42.19 42.98 43.45 44.08 45.35 48.15 50.25 52.53 55.05 55.29 55.79 54.54 56.36 66.22 66.37 66.55 66.45 65.43 63.59 62.37 61.86 61.77 61.39 61.53 61.71 62.10 61.96 62.70 62.24 61.38 60.84
35.99 35.55 35.41 36.36 35.82 36.34 34.41 34.32 35.27 36.31 39.50 39.15 39.99 39.50 40.38 40.41 40.66 41.11 41.74 42.04 42.76 44.59 46.07 48.28 49.30 52.37 54.99 55.02 55.73 54.87 57.10 58.27 66.40 66.37 66.39 65.46 64.25 62.40 61.26 60.55 60.49 61.47 61.26 62.28 61.78 61.87 61.13 61.42 61.53
35.95 30.64 33.14 34.36 35.59 34.74 36.70 30.80 31.84 37.37 39.20 37.97 37.84 38.33 39.54 40.78 41.71 40.89 41.61 41.85 42.91 43.96 45.99 47.50 48.92 51.14 53.62 55.49 54.89 56.87 56.72 60.31 65.54 66.18 66.31 65.53 64.19 62.48 61.27 60.15 59.76 60.96 60.98 61.66 62.30 61.78 61.11 61.29 60.82
31.49 31.22 25.42 34.68 35.21 36.42 33.99 24.83 34.25 38.78 37.00 36.45 37.48 37.28 39.27 40.31 41.62 42.22 42.41 42.39 43.16 44.16 45.12 46.87 49.82 49.70 52.42 54.55 56.36 56.54 59.27 60.79 63.29 65.82 65.66 65.42 64.09 62.83 61.35 60.14 59.66 60.42 60.67 61.29 60.87 60.67 60.76 60.36 58.32
30.79 22.70 24.09 27.06 34.85 34.40 32.67 27.59 35.16 38.46 37.45 36.13 36.36 37.16 38.46 39.32 41.00 41.96 42.50 41.54 43.10 43.94 44.82 45.92 48.00 49.31 50.46 52.31 55.44 57.87 60.48 61.54 62.44 65.28 64.93 64.77 64.01 62.70 61.38 60.49 59.92 59.81 60.63 60.34 60.45 59.22 60.22 59.02 57.40
21.85 22.28 24.21 23.61 29.99 31.89 29.94 29.37 33.84 36.95 36.71 33.88 33.52 34.17 34.97 36.54 39.20 42.46 42.96 43.33 42.82 43.10 44.35 45.60 46.82 48.15 50.36 51.75 56.68 60.31 61.67 61.73 63.68 63.37 63.86 64.35 63.34 62.67 61.36 60.42 59.60 59.85 60.48 60.09 59.65 58.64 59.47 58.51 57.15
27.49 24.68 22.32 25.88 30.67 27.28 28.08 28.98 31.35 34.54 33.73 30.51 30.37 31.09 31.89 33.44 37.21 40.36 42.61 43.02 42.52 43.21 43.79 45.06 45.71 46.86 49.42 50.57 56.56 59.03 59.84 60.75 61.25 61.78 62.18 62.69 62.53 62.18 61.06 60.21 59.22 59.16 59.69 59.74 58.99 58.22 58.24 57.91 57.36
27.18 23.28 21.37 25.83 28.77 26.63 24.63 23.95 28.97 32.61 28.25 28.49 28.19 27.90 28.89 31.02 33.19 36.16 39.34 41.88 42.18 42.49 43.45 44.56 46.20 46.93 48.81 53.85 57.34 59.50 59.12 60.60 60.44 61.10 61.36 61.74 61.76 61.48 60.74 59.98 59.04 59.25 59.11 59.05 58.57 57.22 55.31 57.15 56.96
24.07 21.67 22.34 20.26 24.11 25.66 23.54 21.95 25.87 27.35 27.40 27.40 26.93 26.71 27.21 27.48 29.77 33.11 36.21 38.97 40.58 41.25 42.40 44.86 46.62 47.39 49.04 55.58 58.17 59.48 59.67 59.48 58.88 59.66 60.02 60.71 61.07 61.04 60.41 59.79 59.26 58.82 58.95 58.44 57.74 56.92 56.72 54.31 54.33
18.07 25.94 23.04 21.92 19.89 14.77 24.42 14.21 18.35 22.04 21.59 22.52 23.02 23.10 23.74 25.67 29.49 32.32 35.03 37.33 38.80 41.63 42.84 45.08 46.77 47.75 52.14 56.88 57.81 58.67 57.79 57.08 58.00 58.78 59.74 60.03 60.49 60.38 60.10 59.66 59.20 58.59 58.80 57.97 57.43 57.76 56.39 55.98 52.99
19.51 25.31 22.97 22.41 20.22 19.09 20.92 17.49 15.86 19.57 15.81 17.71 19.82 20.90 22.39 28.23 35.60 32.49 34.50 37.75 39.63 41.82 41.86 44.07 47.65 52.67 55.14 56.04 58.54 57.51 57.75 57.86 58.17 58.65 58.46 58.86 59.31 59.56 59.64 59.00 58.17 57.65 57.62 57.41 56.48 54.48 54.94 54.02 52.68
26.32 22.52 24.79 26.24 22.66 14.14 21.76 20.06 11.60 12.89 14.60 15.57 18.32 19.17 21.93 28.83 34.33 37.48 38.68 39.04 39.20 40.49 42.20 49.55 48.77 48.01 50.21 49.75 50.73 51.57 49.57 49.55 50.77 51.24 49.15 46.37 45.32 45.31 48.72 48.03 47.39 47.28 46.51 45.80 44.19 42.76 42.26 42.24 40.30
22.05 17.32 11.40 11.39 14.27 13.14 22.48 14.79 12.13 15.57 16.88 16.80 16.65 18.09 22.47 26.76 31.47 33.61 37.36 40.15 43.00 45.43 45.83 45.86 44.54 43.22 43.72 44.17 44.55 44.36 43.94 43.44 41.71 41.61 40.97 40.36 40.07 39.95 40.48 41.27 40.49 40.35 40.53 40.73 39.68 37.68 36.82 36.60 35.74
19.91 13.88 5.56 3.25 8.84 12.95 20.71 9.79 13.55 18.00 18.78 18.79 19.36 20.63 21.97 23.81 27.82 31.84 33.24 35.58 39.15 41.05 41.11 40.96 41.21 41.12 41.06 40.06 39.85 40.31 39.49 39.26 38.79 38.38 37.59 36.66 36.53 37.09 37.66 36.97 36.99 37.14 36.99 36.59 36.10 35.07 34.25 34.02 33.02
16.95 11.91 20.12 12.83 16.38 11.89 14.61 16.81 22.73 19.08 15.60 15.78 16.11 18.39 19.07 21.95 25.07 28.98 31.43 32.28 33.62 34.97 37.76 37.11 36.28 36.73 37.33 37.28 37.48 36.11 36.08 35.87 35.10 35.19 35.25 34.00 34.55 35.17 34.65 34.28 32.96 32.82 32.56 32.05 31.81 30.47 29.32 29.50 29.31
20.83 22.63 11.92 12.12 -1.42 2.92 13.40 8.15 5.47 9.40 9.13 11.91 12.72 15.16 18.10 20.95 23.33 26.51 28.18 29.32 30.40 32.13 34.43 34.30 33.19 32.11 33.90 33.96 33.24 32.96 33.16 33.24 32.95 32.45 31.47 31.07 30.66 30.79 30.68 29.99 29.60 29.15 28.99 29.07 28.42 27.13 26.88 26.22 26.57
15.76 12.99 16.64 15.83 11.00 4.83 4.46 4.00 11.51 9.57 10.50 10.04 12.42 15.95 17.72 19.60 21.50 23.97 25.82 27.07 28.08 28.77 30.52 31.14 31.22 29.68 29.60 29.82 29.70 29.40 29.22 29.34 29.31 28.41 28.01 27.58 27.58 27.24 26.67 26.43 26.10 25.76 25.75 26.41 25.94 25.70 25.78 25.03 24.87
20.75 13.68 12.45 4.91 4.07 6.88 6.47 5.43 13.19 10.02 11.86 12.26 12.64 15.01 17.40 19.75 20.64 22.39 23.74 24.08 24.94 25.35 26.80 28.02 28.30 27.44 28.21 28.09 27.45 27.08 27.06 26.59 25.55 25.03 25.46 25.79 24.98 25.77 25.75 25.81 25.28 25.06 24.76 24.82 23.92 23.04 23.24 22.73 22.35
MSLP
1012.04 1011.02 1010.64 1010.51 1010.60 1008.66 1006.96 1006.13 1005.06 1004.09 1003.21 1002.32 1002.22 1002.62 1002.86 1003.31 1003.48 1005.19 1006.00 1005.73 1005.54 1005.35 1005.52 1006.03 1006.62 1007.26 1007.69 1008.01 1008.30 1008.89 1009.41 1009.49 1010.04 1010.47 1010.66 1011.19 1011.66 1011.98 1012.30 1012.72 1012.84 1013.19 1013.47 1013.90 1014.30 1014.49 1014.65 1015.15 1015.66
1012.11 1011.13 1010.63 1010.17 1009.59 1007.95 1006.01 1005.31 1004.26 1003.13 1002.53 1002.23 1002.60 1003.10 1003.30 1003.76 1003.56 1005.36 1005.65 1005.73 1005.34 1005.18 1005.28 1005.89 1006.54 1007.17 1007.61 1007.97 1008.35 1008.82 1009.42 1009.71 1010.05 1010.55 1010.83 1011.28 1011.86 1012.05 1012.29 1012.82 1013.10 1013.36 1013.45 1014.04 1014.40 1014.68 1014.98 1015.35 1015.78
1011.92 1011.12 1010.80 1009.56 1008.03 1006.41 1005.35 1004.43 1003.33 1003.03 1002.49 1002.05 1002.79 1003.42 1003.77 1004.39 1005.25 1006.09 1006.58 1005.91 1005.50 1005.09 1004.97 1005.85 1006.63 1007.01 1007.51 1007.92 1008.26 1008.74 1009.23 1009.72 1010.06 1010.46 1010.85 1011.29 1011.87 1012.21 1012.44 1012.81 1013.14 1013.38 1013.57 1013.88 1014.43 1014.89 1015.17 1015.49 1015.80
1011.41 1010.88 1010.59 1008.58 1006.75 1005.50 1005.04 1004.41 1003.51 1003.10 1003.20 1002.82 1003.31 1004.12 1004.35 1005.65 1005.95 1006.82 1006.59 1006.37 1005.83 1005.58 1005.11 1005.96 1006.50 1006.88 1007.34 1007.80 1008.21 1008.57 1009.11 1009.57 1009.97 1010.51 1010.71 1011.15 1011.77 1012.40 1012.37 1012.91 1013.18 1013.32 1013.74 1013.88 1014.47 1015.00 1015.37 1015.60 1015.85
1011.33 1010.92 1009.83 1008.08 1006.81 1005.99 1005.18 1004.30 1003.94 1003.86 1004.07 1003.90 1004.01 1004.83 1005.44 1006.43 1006.98 1007.20 1006.77 1006.76 1006.81 1006.71 1006.47 1006.15 1006.52 1006.88 1007.14 1007.60 1007.93 1008.33 1008.84 1009.37 1009.82 1010.33 1010.74 1011.08 1011.59 1012.18 1012.63 1012.87 1013.26 1013.39 1013.66 1014.12 1014.50 1015.14 1015.55 1015.64 1015.98
1011.37 1010.29 1009.50 1008.09 1006.75 1005.75 1004.91 1004.63 1004.54 1005.02 1005.35 1005.17 1005.32 1005.64 1006.11 1006.67 1007.15 1007.45 1007.30 1007.11 1007.59 1007.77 1007.76 1007.04 1006.67 1006.88 1007.04 1007.35 1007.73 1008.15 1008.60 1009.07 1009.65 1010.00 1010.57 1010.99 1011.58 1012.07 1012.61 1012.85 1013.26 1013.60 1013.79 1014.19 1014.60 1015.18 1015.59 1015.78 1016.12
1011.44 1010.95 1009.70 1008.72 1007.43 1006.37 1005.51 1005.30 1005.81 1005.80 1006.15 1006.36 1006.76 1006.70 1006.62 1006.90 1007.44 1007.62 1007.61 1007.56 1007.69 1008.21 1008.34 1008.15 1007.97 1007.13 1007.34 1007.04 1007.50 1008.07 1008.48 1008.87 1009.40 1009.87 1010.30 1010.80 1011.48 1011.90 1012.42 1012.96 1013.29 1013.67 1013.92 1014.21 1014.64 1015.20 1015.63 1015.84 1016.05
1011.50 1010.93 1010.14 1009.32 1008.18 1006.76 1006.37 1006.19 1006.56 1006.94 1007.36 1007.42 1007.68 1007.38 1007.21 1007.02 1007.59 1007.93 1008.15 1008.14 1008.00 1008.20 1008.63 1008.73 1008.49 1008.52 1007.72 1007.30 1007.32 1007.80 1008.32 1008.62 1009.11 1009.52 1010.17 1010.66 1011.29 1011.69 1012.09 1012.88 1013.38 1013.68 1013.93 1014.20 1014.70 1015.27 1015.69 1015.93 1016.27
1011.82 1011.32 1009.87 1009.06 1008.42 1007.53 1007.12 1006.99 1006.94 1007.11 1007.64 1008.00 1008.31 1008.28 1007.88 1007.34 1007.47 1008.34 1008.40 1008.52 1008.59 1008.31 1008.66 1008.92 1008.89 1008.81 1008.48 1008.09 1007.27 1007.63 1008.07 1008.57 1008.88 1009.42 1009.96 1010.57 1011.10 1011.46 1012.09 1012.61 1013.27 1013.73 1013.98 1014.29 1014.76 1015.15 1015.67 1016.04 1016.32
1011.97 1010.88 1009.53 1008.71 1008.42 1008.26 1008.07 1008.20 1008.07 1008.22 1008.35 1008.65 1008.71 1008.63 1008.24 1008.04 1008.00 1008.31 1008.95 1008.85 1008.81 1008.62 1008.35 1008.64 1008.81 1008.90 1008.71 1008.68 1008.22 1007.45 1007.82 1008.28 1008.69 1009.10 1009.73 1010.14 1010.75 1011.14 1011.72 1012.35 1012.97 1013.50 1013.90 1014.19 1014.68 1015.12 1015.65 1016.10 1016.35
1011.68 1011.12 1010.33 1009.51 1009.40 1009.34 1009.15 1008.90 1009.01 1009.16 1008.88 1009.03 1008.95 1008.70 1008.63 1008.34 1008.31 1008.77 1009.07 1009.35 1008.78 1008.57 1008.25 1008.44 1008.68 1008.89 1008.85 1009.23 1007.72 1008.28 1007.38 1007.86 1008.28 1008.67 1009.10 1009.53 1010.22 1010.90 1011.39 1012.13 1012.74 1013.29 1013.70 1014.09 1014.50 1015.11 1015.55 1016.02 1016.24
1011.84 1011.41 1010.95 1010.51 1010.36 1010.24 1009.97 1009.81 1009.72 1009.80 1009.30 1009.18 1008.97 1008.79 1008.81 1008.71 1008.69 1008.82 1009.07 1009.11 1008.81 1008.51 1008.26 1008.05 1008.13 1008.45 1008.80 1008.48 1008.57 1008.95 1007.06 1007.25 1008.01 1008.12 1008.48 1008.90 1009.87 1010.57 1011.05 1011.73 1012.40 1012.99 1013.43 1013.92 1014.32 1014.94 1015.30 1015.67 1015.86
1012.33 1011.84 1011.44 1011.11 1010.93 1010.72 1010.43 1010.20 1010.00 1009.40 1009.35 1009.19 1008.96 1008.84 1008.68 1008.68 1008.58 1008.63 1008.63 1008.44 1008.21 1008.32 1008.02 1007.67 1007.67 1007.99 1008.24 1008.44 1008.27 1007.74 1007.29 1006.70 1007.04 1007.26 1007.71 1008.21 1009.28 1010.06 1010.66 1011.37 1012.09 1012.75 1013.26 1013.57 1014.08 1014.52 1014.89 1015.24 1015.54
1012.76 1012.39 1011.99 1011.74 1011.18 1010.86 1010.65 1010.08 1010.17 1009.33 1009.01 1008.77 1008.66 1008.51 1008.31 1008.12 1007.99 1007.96 1008.07 1008.06 1007.91 1007.77 1007.59 1007.35 1007.39 1007.49 1007.82 1008.08 1007.72 1007.69 1008.12 1006.06 1006.94 1006.70 1007.17 1007.44 1008.70 1009.59 1010.24 1010.80 1011.57 1012.48 1013.19 1013.50 1013.86 1014.29 1014.73 1015.01 1015.12
1013.34 1012.91 1012.34 1011.51 1010.73 1010.60 1010.30 1009.79 1009.66 1008.96 1008.58 1008.24 1008.08 1007.87 1007.65 1007.63 1007.45 1007.38 1007.38 1007.52 1007.55 1007.26 1007.38 1007.17 1007.05 1007.15 1007.34 1007.52 1007.17 1006.77 1006.89 1007.03 1005.45 1006.35 1006.80 1007.26 1008.34 1009.09 1010.28 1010.62 1010.90 1011.65 1012.82 1013.34 1013.74 1014.11 1014.47 1014.79 1015.07
1013.16 1012.90 1012.22 1010.92 1010.91 1010.61 1010.58 1009.73 1009.58 1008.75 1008.40 1008.28 1008.10 1007.94 1007.82 1007.58 1007.20 1006.87 1006.79 1006.87 1007.15 1007.16 1007.20 1006.92 1006.78 1006.99 1006.99 1006.82 1006.72 1005.95 1006.04 1006.56 1005.94 1005.01 1006.79 1006.96 1007.99 1008.68 1009.98 1010.75 1010.86 1011.33 1012.29 1013.24 1013.85 1014.17 1014.58 1014.90 1014.94
1013.45 1013.39 1012.79 1011.75 1011.25 1010.86 1011.15 1010.23 1009.54 1009.17 1009.01 1008.74 1008.47 1008.26 1007.84 1007.28 1007.11 1006.77 1006.38 1006.50 1006.75 1006.86 1006.92 1006.68 1006.59 1006.72 1006.68 1006.62 1006.31 1006.01 1005.68 1006.27 1006.45 1006.13 1006.42 1007.05 1008.16 1008.75 1009.49 1010.57 1010.76 1011.14 1012.08 1013.19 1013.82 1014.37 1014.47 1014.98 1015.01
1014.17 1013.99 1013.55 1012.63 1012.02 1011.40 1010.80 1010.27 1009.96 1009.59 1009.82 1009.95 1009.87 1009.62 1009.26 1008.54 1007.65 1006.89 1006.32 1006.15 1006.28 1006.50 1006.70 1006.33 1006.31 1006.21 1006.14 1006.47 1006.29 1005.88 1005.62 1006.00 1006.39 1006.31 1005.57 1007.38 1008.05 1008.54 1009.31 1010.25 1010.93 1010.98 1011.73 1012.80 1013.56 1014.40 1014.69 1014.91 1014.81
1014.63 1014.37 1013.68 1013.07 1012.54 1012.65 1011.93 1011.03 1010.40 1010.51 1010.93 1011.32 1011.53 1011.43 1010.94 1010.11 1008.95 1007.78 1006.95 1005.92 1005.95 1006.21 1006.47 1006.19 1006.12 1005.88 1005.85 1006.22 1006.08 1005.63 1005.22 1005.19 1005.98 1005.91 1006.15 1006.55 1007.85 1008.53 1009.66 1009.98 1011.14 1011.64 1012.01 1012.64 1013.41 1014.18 1014.63 1014.92 1014.99
1014.84 1014.53 1013.81 1013.15 1013.13 1013.19 1012.91 1012.39 1012.04 1012.13 1013.56 1013.78 1013.70 1013.63 1013.12 1011.92 1010.48 1009.05 1007.86 1006.93 1006.16 1006.08 1006.15 1005.93 1005.73 1005.57 1005.41 1005.56 1005.54 1005.49 1005.09 1004.62 1006.08 1006.41 1006.90 1007.49 1007.62 1008.52 1009.56 1010.16 1010.90 1011.83 1012.19 1012.84 1013.40 1013.96 1014.71 1014.99 1015.08
1015.39 1014.84 1014.26 1014.03 1013.49 1012.75 1012.88 1013.89 1013.35 1014.42 1015.04 1015.37 1015.64 1015.65 1014.84 1013.66 1011.70 1009.95 1008.76 1007.76 1007.05 1006.40 1005.91 1005.62 1005.37 1005.20 1005.06 1005.02 1005.16 1005.41 1005.43 1005.20 1006.50 1006.26 1007.88 1007.39 1008.54 1009.18 1009.75 1010.41 1010.20 1011.19 1012.09 1012.59 1013.19 1013.68 1014.48 1015.07 1015.38
1014.60 1014.81 1014.58 1013.97 1014.04 1013.26 1013.87 1014.61 1015.27 1015.83 1016.33 1016.66 1016.83 1016.67 1015.70 1013.98 1011.86 1010.52 1009.20 1008.30 1007.31 1006.56 1005.73 1005.42 1005.18 1005.06 1004.59 1004.41 1004.95 1005.34 1005.25 1005.61 1006.46 1007.12 1007.72 1007.69 1008.69 1009.03 1009.25 1010.13 1010.86 1011.18 1011.60 1012.36 1013.03 1013.43 1014.16 1014.74 1015.40
1015.57 1014.75 1013.90 1013.48 1013.73 1014.15 1013.52 1015.01 1017.61 1017.74 1017.93 1018.69 1018.70 1018.12 1016.79 1014.69 1011.30 1010.28 1009.47 1008.27 1007.28 1006.59 1006.15 1005.77 1005.56 1005.43 1004.52 1004.15 1004.64 1005.23 1005.69 1005.77 1006.62 1007.47 1007.25 1008.27 1008.90 1009.01 1009.50 1010.00 1010.90 1011.07 1011.39 1012.08 1012.80 1013.93 1014.22 1014.93 1015.65
1016.33 1014.44 1012.91 1013.15 1013.60 1014.29 1014.34 1015.52 1019.07 1020.32 1021.63 1020.76 1019.96 1018.93 1017.56 1015.24 1012.69 1010.83 1008.87 1007.77 1007.09 1006.61 1006.29 1006.39 1006.50 1006.53 1005.96 1005.37 1006.08 1006.17 1006.21 1006.28 1007.76 1008.35 1009.07 1009.84 1010.55 1010.72 1010.31 1010.74 1011.85 1011.95 1013.04 1014.05 1014.65 1014.90 1015.66 1016.87 1017.26
1016.94 1015.59 1014.96 1014.37 1014.41 1015.03 1015.27 1017.01 1021.15 1022.32 1022.88 1023.03 1021.96 1020.52 1018.99 1016.79 1013.91 1012.20 1010.60 1009.24 1007.98 1007.64 1007.35 1007.52 1007.57 1007.54 1007.76 1007.00 1007.29 1007.91 1007.67 1008.24 1009.64 1010.52 1011.23 1012.04 1012.28 1012.51 1012.72 1012.22 1013.14 1014.18 1014.72 1015.66 1015.99 1016.28 1017.50 1018.42 1018.83
1018.58 1018.72 1018.86 1018.39 1017.17 1016.54 1016.32 1018.57 1021.01 1022.39 1023.56 1023.62 1023.22 1022.04 1019.95 1017.16 1015.79 1014.07 1012.88 1011.57 1010.44 1009.62 1009.58 1009.11 1008.63 1009.13 1009.48 1008.41 1009.25 1009.26 1009.28 1010.04 1011.35 1012.26 1012.86 1013.45 1014.08 1014.62 1014.83 1014.57 1014.49 1015.99 1016.55 1017.07 1017.65 1018.64 1019.04 1019.92 1020.30
1019.74 1020.05 1020.15 1019.93 1018.59 1018.42 1018.42 1019.88 1020.76 1021.80 1023.12 1023.61 1023.06 1021.56 1020.52 1019.39 1017.93 1016.34 1015.01 1014.07 1013.05 1012.09 1011.73 1010.96 1010.78 1011.42 1010.34 1010.49 1010.74 1010.98 1011.75 1012.42 1012.95 1013.32 1013.97 1014.48 1015.93 1016.59 1016.47 1015.22 1016.60 1018.00 1017.73 1018.64 1019.50 1020.06 1021.01 1021.91 1022.45
1021.15 1021.33 1020.93 1020.71 1020.99 1020.42 1020.42 1022.23 1023.98 1023.76 1024.06 1024.53 1023.84 1023.26 1022.44 1021.33 1019.70 1018.42 1017.37 1016.41 1015.36 1014.55 1013.89 1013.57 1013.30 1012.72 1011.85 1011.62 1012.15 1012.96 1014.07 1014.27 1014.52 1014.52 1015.66 1016.10 1017.71 1017.76 1017.80 1017.18 1018.16 1020.05 1020.34 1021.00 1021.18 1022.29 1022.86 1023.62 1024.22
1022.36 1022.53 1022.27 1022.32 1022.27 1022.47 1022.95 1023.97 1025.91 1026.73 1027.04 1026.62 1025.75 1025.16 1024.16 1022.85 1021.59 1020.50 1019.50 1018.47 1017.54 1016.60 1016.03 1015.51 1015.26 1014.33 1012.58 1013.21 1014.06 1015.12 1015.57 1016.25 1016.82 1016.91 1017.48 1018.34 1019.56 1018.93 1019.85 1019.61 1020.76 1022.01 1022.33 1022.73 1023.11 1023.75 1024.49 1024.75 1025.38
1023.81 1024.34 1024.14 1024.02 1023.76 1023.25 1023.81 1025.12 1026.65 1027.58 1028.34 1027.56 1027.59 1026.32 1025.15 1024.32 1023.19 1022.46 1020.92 1019.99 1019.22 1018.45 1017.22 1017.13 1017.29 1013.60 1014.71 1014.81 1015.44 1016.57 1017.91 1018.95 1018.73 1018.86 1019.85 1019.79 1019.86 1020.89 1021.69 1021.93 1022.51 1023.41 1024.05 1024.31 1024.54 1025.24 1025.95 1026.25 1026.43
Wind_Speed
15 9 4 3 4 6 12 12 13 14 16 9 7 2 4 9 6 1 6 6 6 7 15 14 17 18 17 17 19 19 17 19 19 19 19 19 18 18 18 16 15 15 15 14 14 14 15 11 8
10 13 3 4 5 11 10 15 17 15 15 4 3 8 4 7 8 7 5 9 9 4 7 14 16 18 17 17 17 20 19 19 18 19 19 18 17 17 18 16 14 14 17 15 15 15 13 12 11
12 10 3 5 8 17 10 11 14 7 15 8 2 7 4 2 14 5 7 10 10 5 3 14 15 17 18 17 17 20 20 19 19 19 19 19 18 17 15 14 12 14 15 17 16 15 15 14 13
5 3 5 9 19 16 20 16 5 5 8 6 5 4 3 10 6 7 9 12 10 12 3 13 18 17 18 18 18 20 21 20 20 19 19 19 17 14 15 13 11 14 14 15 15 16 14 14 14
5 4 9 12 19 19 17 14 8 7 5 9 2 3 5 8 10 9 9 11 14 16 11 10 17 18 18 19 21 21 21 21 20 20 19 19 18 16 13 12 10 12 13 13 16 15 13 14 13
4 4 8 14 17 17 14 5 3 3 7 11 12 5 2 12 11 9 9 9 10 11 14 6 12 14 16 17 19 21 21 21 21 21 19 19 18 17 14 13 11 11 12 12 17 14 13 12 11
8 8 15 19 18 19 17 7 5 5 6 9 12 7 8 12 10 10 11 9 8 9 11 10 13 8 11 16 16 17 20 21 21 21 20 19 18 19 15 12 12 12 11 12 12 13 11 10 10
3 5 16 16 15 19 12 2 6 2 4 10 7 3 3 7 9 8 8 10 8 7 7 8 9 14 7 12 14 15 15 16 18 18 15 15 14 15 15 12 10 13 12 14 12 12 11 9 7
5 5 10 16 15 14 9 12 4 2 4 4 7 10 11 19 15 7 6 6 8 4 6 5 6 8 9 11 12 13 14 14 14 13 14 14 10 12 12 11 9 10 10 11 13 13 11 9 8
6 6 8 7 9 8 8 11 11 9 7 9 10 11 11 10 9 8 8 10 7 8 3 4 4 4 7 8 12 12 12 11 11 11 12 10 9 10 10 11 10 11 11 12 12 12 10 7 4
6 13 15 15 15 15 14 10 10 13 15 10 10 10 10 8 7 8 8 9 9 7 4 5 3 1 2 3 7 8 8 8 9 13 13 11 9 8 8 6 4 4 6 5 7 6 4 5 4
12 14 14 14 14 14 13 15 13 14 16 13 14 13 13 13 10 9 9 9 9 8 8 4 4 2 4 2 3 9 8 9 8 11 15 10 7 9 8 7 7 5 4 5 5 4 6 6 6
17 16 14 12 14 14 14 14 15 19 15 15 14 17 15 13 13 11 10 12 9 8 8 7 1 4 3 3 2 3 6 8 12 12 14 11 10 10 9 8 7 6 4 5 5 5 5 5 5
12 15 15 15 16 16 18 19 14 15 17 17 16 15 13 13 11 10 8 8 9 7 8 1 2 4 4 4 5 4 2 9 11 10 12 14 11 11 10 9 10 6 4 4 4 5 5 4 3
11 17 16 18 18 10 11 12 14 18 18 17 11 9 10 9 10 10 8 7 9 5 7 5 4 4 5 5 6 6 3 4 7 9 12 9 11 11 11 9 10 9 5 5 4 4 4 4 4
16 14 12 9 2 7 3 13 16 13 9 11 11 10 13 12 9 8 8 5 7 7 7 7 3 5 5 5 5 5 4 2 5 10 8 10 9 11 10 8 8 8 7 4 4 4 3 3 4
4 11 17 16 15 15 7 13 12 12 14 13 9 11 12 11 11 10 7 6 8 6 7 6 4 5 6 6 6 7 6 2 3 7 11 11 12 13 10 7 8 9 8 4 4 2 4 3 3
15 14 12 19 16 20 19 17 15 14 10 10 13 14 16 17 13 11 8 8 3 2 8 7 5 6 6 4 5 5 5 4 4 3 3 10 7 11 7 7 6 9 8 5 5 3 3 3 3
15 16 20 18 17 13 12 12 8 13 6 12 14 15 16 18 19 18 18 5 1 2 8 8 7 8 3 3 3 4 3 3 3 6 11 5 10 11 4 5 6 4 7 7 6 4 4 2 2
15 21 20 15 11 12 12 17 15 8 17 16 17 18 19 19 19 19 18 14 7 5 8 8 8 7 5 4 3 3 2 3 4 4 8 10 6 10 8 10 7 4 5 6 5 5 2 2 1
17 18 14 19 21 18 12 5 11 11 15 17 18 19 19 20 22 18 17 13 12 9 8 8 8 6 7 7 3 2 1 6 2 6 5 9 9 9 9 8 10 8 4 5 6 5 6 3 2
18 15 20 20 9 5 8 3 16 14 17 21 22 22 23 25 22 17 15 12 10 11 8 8 6 7 9 8 6 10 5 7 3 5 6 8 12 11 10 10 7 8 6 6 5 6 5 5 4
8 24 19 18 8 1 1 2 6 13 20 25 23 25 26 26 15 10 11 10 9 11 8 6 7 9 8 4 7 6 5 5 5 3 6 6 5 7 10 7 4 5 4 5 2 4 3 3 3
26 17 10 2 3 0 10 1 8 11 16 22 22 26 27 26 22 18 9 8 8 8 6 8 11 12 13 15 12 9 11 13 9 9 9 9 8 8 12 15 11 12 12 10 9 13 16 10 11
20 17 5 4 3 4 6 10 6 14 14 15 21 23 23 23 23 23 23 20 13 14 12 11 13 16 13 15 16 13 16 18 16 12 11 11 9 10 13 14 16 12 14 14 13 16 16 14 12
10 6 3 5 5 5 8 5 5 16 11 13 14 16 21 28 24 23 22 20 18 17 15 14 15 15 11 18 17 16 19 13 13 15 12 12 12 12 14 16 20 18 18 16 16 13 13 14 14
10 6 8 4 5 3 3 6 4 23 15 18 21 25 27 25 24 22 21 19 17 17 16 16 16 12 16 18 17 20 18 17 17 19 17 15 14 12 15 23 21 18 19 19 16 14 16 15 14
5 6 4 4 6 7 4 4 5 24 25 24 24 23 23 22 23 21 19 19 18 17 14 16 15 13 17 21 20 18 18 17 18 19 21 21 17 17 17 22 23 20 19 18 18 16 17 15 11
9 6 5 2 2 2 4 2 3 10 14 17 17 19 19 19 19 17 17 16 16 17 16 14 11 13 21 23 22 22 20 19 18 20 20 21 19 21 20 22 21 19 19 17 17 17 15 16 14
10 7 4 3 6 2 4 2 2 6 11 13 15 16 17 16 16 17 16 16 16 17 16 12 8 24 21 23 25 24 21 19 19 22 20 20 22 21 19 20 20 18 17 16 18 17 15 15 15
Wind_Direction
309 302 250 270 244 231 243 232 257 257 264 272 313 281 276 330 267 249 99 19 10 343 149 158 162 171 175 173 166 162 162 159 163 159 155 155 156 153 150 149 149 147 147 143 145 142 134 140 135
305 297 253 256 229 242 245 230 240 241 231 149 54 330 286 294 315 80 352 353 341 28 125 164 166 173 178 177 171 165 165 164 165 163 159 159 160 159 158 159 163 164 153 152 151 149 130 126 125
264 263 261 217 229 235 249 267 290 348 326 205 228 204 232 37 49 66 359 352 338 20 63 159 168 174 181 180 176 171 168 168 167 166 162 161 164 165 164 164 174 179 155 152 156 139 135 126 120
304 205 265 254 246 244 238 245 320 342 319 299 48 330 18 42 59 26 13 8 7 351 31 147 171 180 184 181 180 176 173 172 169 170 166 167 167 168 158 153 158 156 154 152 152 146 140 129 126
247 257 248 250 249 260 272 285 319 320 304 298 177 260 289 59 51 17 10 38 10 4 351 150 173 184 185 188 185 182 177 175 173 173 172 169 169 165 163 153 155 153 149 154 145 144 146 140 137
279 224 258 254 262 266 262 12 27 13 331 321 322 313 175 89 42 13 6 15 48 13 8 358 182 184 190 189 192 186 182 179 180 173 172 171 170 165 166 162 162 158 157 150 148 148 154 147 146
238 270 268 273 274 284 299 44 20 360 330 298 2 335 318 67 48 9 346 354 66 45 20 10 357 208 224 184 186 190 188 183 178 175 175 174 170 166 162 165 169 164 163 171 152 147 157 156 157
310 281 265 264 271 273 284 56 75 58 276 345 357 262 274 306 32 6 341 351 336 88 49 22 20 11 259 207 189 188 186 181 182 177 175 169 166 158 155 169 175 169 176 184 164 157 161 160 146
280 253 244 251 256 272 312 317 152 99 235 248 285 288 300 303 319 338 328 333 324 3 81 45 21 19 333 327 203 186 186 185 175 171 165 159 168 161 164 159 178 173 177 172 168 162 162 156 143
220 239 248 265 293 316 302 314 320 319 274 257 254 264 282 285 323 347 339 319 318 311 38 86 42 26 13 324 329 201 193 187 186 172 170 168 165 161 158 153 175 185 189 174 171 157 158 156 148
240 251 288 313 327 331 322 311 313 304 278 276 269 280 281 315 316 313 312 294 295 301 310 119 95 33 37 305 341 293 193 193 187 177 171 175 161 160 153 157 158 161 184 175 163 159 154 178 193
282 283 289 299 316 319 305 312 297 287 285 298 301 294 290 289 288 282 282 276 284 296 300 268 158 233 184 189 35 304 220 188 189 183 177 173 158 164 161 160 159 164 162 172 157 158 172 193 214
282 276 285 310 314 307 301 285 279 275 278 275 277 274 275 277 273 267 261 269 264 273 279 266 128 233 216 235 270 320 352 214 186 179 180 173 165 168 159 159 158 166 158 179 162 167 179 189 193
303 302 298 292 285 283 278 276 268 273 282 277 273 275 275 267 268 272 263 269 268 269 272 161 224 248 217 224 234 214 187 301 197 182 183 176 172 167 166 162 157 151 163 181 176 168 168 177 169
304 288 285 275 264 248 276 287 270 268 268 257 270 269 267 262 268 262 252 251 267 272 285 290 233 261 243 218 227 247 193 253 240 175 169 189 171 162 166 163 161 154 160 181 166 148 153 165 172
271 264 276 303 180 271 321 288 282 288 349 334 320 312 302 299 294 269 253 233 262 274 284 270 240 250 244 242 231 255 244 203 333 180 175 150 165 167 163 167 163 150 151 157 150 157 161 198 164
17 323 311 307 317 320 301 295 273 302 307 290 285 282 274 270 271 281 258 226 230 242 278 265 256 236 251 248 269 242 246 167 241 224 159 167 170 177 162 170 163 151 156 146 145 175 151 177 164
311 304 300 301 312 297 291 286 269 274 356 14 9 359 355 349 334 313 276 235 246 287 289 288 276 251 234 216 246 247 241 162 196 130 103 157 157 150 156 156 158 159 148 143 138 161 189 163 164
293 307 306 304 302 2 326 322 311 26 32 27 10 355 346 336 331 328 332 290 288 286 276 273 266 252 203 205 223 248 224 117 74 112 111 77 158 137 114 122 131 145 154 153 153 150 189 197 134
321 312 305 302 336 319 305 305 300 351 23 10 7 356 339 329 324 319 318 325 314 265 256 261 263 262 247 191 208 224 238 96 101 96 121 130 117 141 130 141 147 188 136 137 147 155 116 133 211
319 301 315 312 317 287 250 13 53 36 23 11 9 351 339 325 309 303 301 304 310 288 258 253 255 269 280 192 187 130 87 73 103 110 169 136 151 148 149 169 151 155 147 152 161 156 153 157 187
314 337 309 301 319 296 39 138 34 13 4 6 359 346 336 324 292 279 282 282 286 288 262 264 287 282 273 181 189 194 190 145 146 155 176 147 168 161 150 162 168 167 163 160 167 165 166 155 184
308 313 300 289 259 258 124 132 10 20 358 353 348 340 335 328 332 244 261 273 281 296 304 309 344 357 331 191 187 171 160 125 145 146 125 158 166 153 166 146 157 156 152 168 102 64 22 13 51
334 313 296 200 124 277 41 152 34 14 355 340 342 340 337 339 351 358 314 260 253 266 301 52 52 37 34 65 60 81 81 66 67 47 58 47 46 38 34 69 57 63 58 58 73 71 66 67 77
345 352 355 19 27 43 14 63 63 16 6 346 338 332 338 346 359 1 5 7 37 38 50 57 54 51 41 67 63 64 73 81 75 68 70 62 51 45 46 67 71 58 69 68 68 73 70 66 69
346 37 56 345 346 322 39 23 121 38 7 351 343 342 349 3 357 4 8 8 17 36 40 53 59 60 62 65 65 64 65 73 80 76 74 70 61 55 61 72 69 68 64 67 68 66 70 62 65
322 29 289 274 211 266 84 25 208 354 355 358 358 2 3 358 358 1 11 14 17 23 34 45 55 60 63 74 71 66 68 74 80 78 74 70 63 63 67 69 68 61 67 63 63 65 61 60 58
10 337 5 328 17 338 73 89 282 342 340 351 358 1 355 357 1 7 14 13 18 22 30 41 49 58 70 74 68 64 65 67 73 77 75 73 67 62 64 68 66 62 60 68 68 67 65 67 59
3 17 322 236 95 256 308 259 27 333 344 347 348 354 355 357 360 8 14 15 22 24 29 34 43 73 71 70 71 68 61 60 67 75 73 72 70 66 63 68 73 69 65 66 73 71 70 69 66
87 350 330 50 319 240 209 279 79 24 2 344 358 354 354 4 4 16 16 21 26 27 26 14 35 67 67 69 68 67 68 67 72 68 70 75 75 66 66 71 72 71 67 65 68 70 65 63 60